| time (UTC) | temp F | wind direction | speed MPH | gust MPH | rain 1hr in | rain 24hr in | rain mn in | humidity % | barometer mb |
| 20260509222244 | 57 | 35 | 5.0 | 7.0 | 0.00 | 0.00 | 0.00 | 34 | 1023.3 |
| 20260509221740 | 57 | 296 | 2.0 | 3.0 | 0.00 | 0.00 | 0.00 | 33 | 1023.5 |
| 20260509221237 | 58 | 335 | 2.0 | 11.0 | 0.00 | 0.00 | 0.00 | 32 | 1023.5 |
| 20260509220732 | 58 | 31 | 4.0 | 9.0 | 0.00 | 0.00 | 0.00 | 28 | 1023.6 |
| 20260509220229 | 61 | 290 | 6.0 | 9.0 | 0.00 | 0.00 | 0.00 | 21 | 1023.5 |
| 20260509215725 | 58 | 62 | 4.0 | 14.0 | 0.00 | 0.00 | 0.00 | 25 | 1023.6 |
| 20260509215221 | 57 | 283 | 5.0 | 8.0 | 0.00 | 0.00 | 0.00 | 26 | 1023.3 |
| 20260509214719 | 57 | 273 | 1.0 | 2.0 | 0.00 | 0.00 | 0.00 | 25 | 1023.6 |
| 20260509214215 | 56 | 291 | 2.0 | 2.0 | 0.00 | 0.00 | 0.00 | 24 | 1023.6 |
| 20260509213713 | 56 | 260 | 2.0 | 6.0 | 0.00 | 0.00 | 0.00 | 26 | 1023.6 |
| 20260509213208 | 57 | 266 | 6.0 | 10.0 | 0.00 | 0.00 | 0.00 | 23 | 1024.0 |
| 20260509212706 | 59 | 280 | 6.0 | 10.0 | 0.00 | 0.00 | 0.00 | 23 | 1023.6 |
| 20260509212203 | 59 | 13 | 6.0 | 11.0 | 0.00 | 0.00 | 0.00 | 24 | 1023.6 |
| 20260509211658 | 62 | 347 | 3.0 | 7.0 | 0.00 | 0.00 | 0.00 | 23 | 1023.6 |
| 20260509211155 | 60 | 33 | 4.0 | 13.0 | 0.00 | 0.00 | 0.00 | 23 | 1023.6 |
| 20260509210652 | 59 | 247 | 3.0 | 8.0 | 0.00 | 0.00 | 0.00 | 25 | 1023.6 |
| 20260509210144 | 58 | 299 | 7.0 | 10.0 | 0.00 | 0.00 | 0.00 | 25 | 1023.9 |
| 20260509205639 | 58 | 284 | 6.0 | 14.0 | 0.00 | 0.00 | 0.00 | 24 | 1023.7 |
| 20260509205138 | 59 | 255 | 6.0 | 15.0 | 0.00 | 0.00 | 0.00 | 25 | 1023.6 |
| 20260509204635 | 60 | 291 | 4.0 | 11.0 | 0.00 | 0.00 | 0.00 | 24 | 1023.7 |
| 20260509204131 | 60 | 310 | 7.0 | 10.0 | 0.00 | 0.00 | 0.00 | 25 | 1023.5 |
| 20260509203627 | 60 | 327 | 6.0 | 17.0 | 0.00 | 0.00 | 0.00 | 24 | 1023.6 |
| 20260509203120 | 60 | 246 | 6.0 | 8.0 | 0.00 | 0.00 | 0.00 | 24 | 1023.5 |
| 20260509202619 | 60 | 333 | 8.0 | 11.0 | 0.00 | 0.00 | 0.00 | 25 | 1023.7 |
| 20260509202116 | 62 | 303 | 3.0 | 6.0 | 0.00 | 0.00 | 0.00 | 26 | 1023.5 |
| 20260509201615 | 59 | 347 | 6.0 | 9.0 | 0.00 | 0.00 | 0.00 | 24 | 1023.9 |
| 20260509201114 | 59 | 284 | 6.0 | 11.0 | 0.00 | 0.00 | 0.00 | 26 | 1023.9 |
| 20260509200615 | 59 | 258 | 4.0 | 10.0 | 0.00 | 0.00 | 0.00 | 25 | 1023.9 |
| 20260509200105 | 60 | 276 | 5.0 | 14.0 | 0.00 | 0.00 | 0.00 | 24 | 1023.6 |
| 20260509195601 | 60 | 46 | 2.0 | 7.0 | 0.00 | 0.00 | 0.00 | 25 | 1023.5 |
| 20260509195055 | 60 | 8 | 6.0 | 9.0 | 0.00 | 0.00 | 0.00 | 25 | 1023.9 |
| 20260509194555 | 59 | 210 | 9.0 | 11.0 | 0.00 | 0.00 | 0.00 | 24 | 1023.9 |
| 20260509194053 | 60 | 254 | 6.0 | 11.0 | 0.00 | 0.00 | 0.00 | 23 | 1023.9 |
| 20260509193548 | 60 | 264 | 6.0 | 9.0 | 0.00 | 0.00 | 0.00 | 24 | 1023.9 |
| 20260509193044 | 59 | 329 | 11.0 | 13.0 | 0.00 | 0.00 | 0.00 | 23 | 1023.7 |
| 20260509192541 | 58 | 276 | 13.0 | 16.0 | 0.00 | 0.00 | 0.00 | 24 | 1024.1 |
| 20260509192036 | 59 | 195 | 5.0 | 7.0 | 0.00 | 0.00 | 0.00 | 23 | 1023.9 |
| 20260509191531 | 58 | 306 | 5.0 | 14.0 | 0.00 | 0.00 | 0.00 | 29 | 1024.0 |
| 20260509191027 | 58 | 277 | 6.0 | 18.0 | 0.00 | 0.00 | 0.00 | 25 | 1024.0 |
| 20260509190525 | 58 | 20 | 6.0 | 11.0 | 0.00 | 0.00 | 0.00 | 26 | 1023.9 |
| 20260509190023 | 60 | 279 | 11.0 | 14.0 | 0.00 | 0.00 | 0.00 | 25 | 1024.1 |
| 20260509185520 | 59 | 296 | 7.0 | 16.0 | 0.00 | 0.00 | 0.00 | 26 | 1024.0 |
| 20260509185016 | 58 | 355 | 4.0 | 13.0 | 0.00 | 0.00 | 0.00 | 24 | 1023.9 |
| 20260509184514 | 59 | 298 | 9.0 | 14.0 | 0.00 | 0.00 | 0.00 | 24 | 1023.6 |
| 20260509184010 | 57 | 287 | 7.0 | 9.0 | 0.00 | 0.00 | 0.00 | 26 | 1024.0 |
| 20260509183505 | 57 | 275 | 3.0 | 8.0 | 0.00 | 0.00 | 0.00 | 26 | 1023.7 |
| 20260509183001 | 57 | 339 | 7.0 | 14.0 | 0.00 | 0.00 | 0.00 | 25 | 1024.3 |
| 20260509182458 | 57 | 340 | 6.0 | 17.0 | 0.00 | 0.00 | 0.00 | 26 | 1024.3 |
| 20260509181955 | 56 | 262 | 3.0 | 16.0 | 0.00 | 0.00 | 0.00 | 28 | 1024.0 |
| 20260509181454 | 56 | 265 | 13.0 | 16.0 | 0.00 | 0.00 | 0.00 | 26 | 1024.1 |
| 20260509180951 | 57 | 287 | 10.0 | 15.0 | 0.00 | 0.00 | 0.00 | 27 | 1024.1 |
| 20260509180446 | 56 | 247 | 3.0 | 15.0 | 0.00 | 0.00 | 0.00 | 29 | 1024.1 |
| 20260509175943 | 56 | 325 | 6.0 | 16.0 | 0.00 | 0.00 | 0.00 | 28 | 1024.0 |
| 20260509175439 | 55 | 266 | 4.0 | 13.0 | 0.00 | 0.00 | 0.00 | 28 | 1024.1 |
| 20260509174935 | 57 | 237 | 7.0 | 10.0 | 0.00 | 0.00 | 0.00 | 28 | 1024.3 |
| 20260509174432 | 56 | 338 | 5.0 | 8.0 | 0.00 | 0.00 | 0.00 | 29 | 1023.9 |
| 20260509173927 | 55 | 243 | 3.0 | 9.0 | 0.00 | 0.00 | 0.00 | 29 | 1024.1 |
| 20260509173426 | 55 | 262 | 5.0 | 10.0 | 0.00 | 0.00 | 0.00 | 30 | 1024.1 |
| 20260509172923 | 55 | 295 | 4.0 | 8.0 | 0.00 | 0.00 | 0.00 | 31 | 1024.0 |
| 20260509172420 | 55 | 258 | 1.0 | 13.0 | 0.00 | 0.00 | 0.00 | 29 | 1024.1 |
| 20260509171916 | 55 | 266 | 6.0 | 15.0 | 0.00 | 0.00 | 0.00 | 28 | 1024.0 |
| 20260509171412 | 57 | 324 | 6.0 | 11.0 | 0.00 | 0.00 | 0.00 | 30 | 1024.0 |
| 20260509170908 | 56 | 257 | 3.0 | 10.0 | 0.00 | 0.00 | 0.00 | 29 | 1024.1 |
| 20260509170404 | 55 | 24 | 3.0 | 14.0 | 0.00 | 0.00 | 0.00 | 28 | 1023.9 |
| 20260509165900 | 55 | 256 | 5.0 | 11.0 | 0.00 | 0.00 | 0.00 | 28 | 1023.9 |
| 20260509165354 | 54 | 330 | 9.0 | 16.0 | 0.00 | 0.00 | 0.00 | 28 | 1024.3 |
| 20260509164850 | 54 | 260 | 3.0 | 10.0 | 0.00 | 0.00 | 0.00 | 29 | 1024.0 |
| 20260509164346 | 55 | 260 | 6.0 | 16.0 | 0.00 | 0.00 | 0.00 | 28 | 1023.9 |
| 20260509163843 | 53 | 293 | 8.0 | 18.0 | 0.00 | 0.00 | 0.00 | 30 | 1023.9 |
| 20260509163339 | 55 | 318 | 10.0 | 21.0 | 0.00 | 0.00 | 0.00 | 28 | 1023.7 |
| 20260509162839 | 55 | 261 | 5.0 | 11.0 | 0.00 | 0.00 | 0.00 | 29 | 1024.0 |
| 20260509162332 | 53 | 266 | 8.0 | 17.0 | 0.00 | 0.00 | 0.00 | 29 | 1023.9 |
| 20260509161829 | 54 | 29 | 7.0 | 13.0 | 0.00 | 0.00 | 0.00 | 32 | 1023.9 |
| 20260509161325 | 53 | 235 | 7.0 | 14.0 | 0.00 | 0.00 | 0.00 | 29 | 1023.9 |
| 20260509160821 | 53 | 290 | 6.0 | 10.0 | 0.00 | 0.00 | 0.00 | 30 | 1023.9 |
| 20260509160316 | 54 | 292 | 5.0 | 11.0 | 0.00 | 0.00 | 0.00 | 32 | 1023.9 |
| 20260509155812 | 53 | 236 | 4.0 | 23.0 | 0.00 | 0.00 | 0.00 | 32 | 1023.6 |
| 20260509155308 | 53 | 290 | 4.0 | 4.0 | 0.00 | 0.00 | 0.00 | 34 | 1023.7 |
| 20260509154804 | 54 | 278 | 4.0 | 8.0 | 0.00 | 0.00 | 0.00 | 34 | 1023.7 |
| 20260509154301 | 54 | 311 | 3.0 | 3.0 | 0.00 | 0.00 | 0.00 | 33 | 1023.7 |
| 20260509153758 | 52 | 267 | 1.0 | 2.0 | 0.00 | 0.00 | 0.00 | 34 | 1023.9 |
| 20260509153254 | 51 | 350 | 9.0 | 11.0 | 0.00 | 0.00 | 0.00 | 35 | 1023.9 |
| 20260509152751 | 52 | 334 | 7.0 | 8.0 | 0.00 | 0.00 | 0.00 | 37 | 1023.6 |
| 20260509152247 | 53 | 229 | 1.0 | 1.0 | 0.00 | 0.00 | 0.00 | 31 | 1023.6 |
| 20260509151745 | 53 | 98 | 3.0 | 6.0 | 0.00 | 0.00 | 0.00 | 34 | 1023.9 |
| 20260509151241 | 51 | 265 | 0.0 | 4.0 | 0.00 | 0.00 | 0.00 | 36 | 1023.6 |
| 20260509150740 | 51 | 271 | 2.0 | 7.0 | 0.00 | 0.00 | 0.00 | 34 | 1023.5 |
| 20260509150238 | 52 | 355 | 3.0 | 7.0 | 0.00 | 0.00 | 0.00 | 37 | 1023.6 |
| 20260509145735 | 52 | 319 | 3.0 | 4.0 | 0.00 | 0.00 | 0.00 | 35 | 1023.6 |
| 20260509145234 | 51 | 62 | 3.0 | 3.0 | 0.00 | 0.00 | 0.00 | 32 | 1023.9 |
| 20260509144732 | 51 | 241 | 0.0 | 2.0 | 0.00 | 0.00 | 0.00 | 34 | 1023.9 |
| 20260509144228 | 50 | 331 | 3.0 | 6.0 | 0.00 | 0.00 | 0.00 | 38 | 1023.9 |
| 20260509143725 | 49 | 272 | 2.0 | 3.0 | 0.00 | 0.00 | 0.00 | 35 | 1024.0 |
| 20260509143222 | 49 | 232 | 4.0 | 4.0 | 0.00 | 0.00 | 0.00 | 34 | 1024.1 |
| 20260509142718 | 48 | 220 | 0.0 | 3.0 | 0.00 | 0.00 | 0.00 | 40 | 1024.0 |
| 20260509142215 | 48 | 295 | 1.0 | 2.0 | 0.00 | 0.00 | 0.00 | 39 | 1023.9 |
| 20260509141710 | 47 | 258 | 0.0 | 2.0 | 0.00 | 0.00 | 0.00 | 40 | 1023.6 |
| 20260509141208 | 47 | 282 | 2.0 | 3.0 | 0.00 | 0.00 | 0.00 | 42 | 1023.7 |
| 20260509140704 | 47 | 302 | 2.0 | 3.0 | 0.00 | 0.00 | 0.00 | 41 | 1023.9 |
| 20260509140202 | 46 | 264 | 0.0 | 1.0 | 0.00 | 0.00 | 0.00 | 42 | 1024.0 |
| 20260509135659 | 44 | 350 | 0.0 | 3.0 | 0.00 | 0.00 | 0.00 | 46 | 1024.1 |
| 20260509135157 | 41 | 278 | 0.0 | 0.0 | 0.00 | 0.00 | 0.00 | 47 | 1024.1 |
| 20260509134653 | 37 | 240 | 0.0 | 2.0 | 0.00 | 0.00 | 0.00 | 60 | 1023.9 |
| 20260509134151 | 38 | 235 | 1.0 | 2.0 | 0.00 | 0.00 | 0.00 | 60 | 1024.1 |
| 20260509133648 | 38 | 233 | 0.0 | 0.0 | 0.00 | 0.00 | 0.00 | 63 | 1023.9 |
| 20260509133145 | 38 | 118 | 3.0 | 3.0 | 0.00 | 0.00 | 0.00 | 53 | 1023.9 |
| 20260509132643 | 38 | 219 | 2.0 | 2.0 | 0.00 | 0.00 | 0.00 | 57 | 1023.9 |
| 20260509132141 | 38 | 213 | 2.0 | 3.0 | 0.00 | 0.00 | 0.00 | 60 | 1023.6 |
| 20260509131637 | 39 | 210 | 2.0 | 3.0 | 0.00 | 0.00 | 0.00 | 58 | 1023.6 |
| 20260509131134 | 40 | 206 | 2.0 | 3.0 | 0.00 | 0.00 | 0.00 | 55 | 1023.3 |
| 20260509130630 | 41 | 228 | 2.0 | 3.0 | 0.00 | 0.00 | 0.00 | 52 | 1023.6 |
| 20260509130126 | 41 | 244 | 2.0 | 4.0 | 0.00 | 0.00 | 0.00 | 51 | 1023.5 |
| 20260509125623 | 42 | 257 | 0.0 | 2.0 | 0.00 | 0.00 | 0.00 | 50 | 1023.3 |
| 20260509125120 | 43 | 237 | 2.0 | 4.0 | 0.00 | 0.00 | 0.00 | 48 | 1023.1 |
| 20260509124616 | 44 | 248 | 1.0 | 2.0 | 0.00 | 0.00 | 0.00 | 44 | 1023.1 |
| 20260509124114 | 44 | 231 | 4.0 | 4.0 | 0.00 | 0.00 | 0.00 | 45 | 1023.2 |
| 20260509123612 | 44 | 246 | 6.0 | 8.0 | 0.00 | 0.00 | 0.00 | 44 | 1022.8 |
| 20260509123108 | 44 | 270 | 6.0 | 8.0 | 0.00 | 0.00 | 0.00 | 44 | 1022.8 |
| 20260509122604 | 44 | 269 | 7.0 | 16.0 | 0.00 | 0.00 | 0.00 | 43 | 1022.7 |
| 20260509122102 | 44 | 261 | 6.0 | 16.0 | 0.00 | 0.00 | 0.00 | 44 | 1022.7 |
| 20260509121558 | 44 | 249 | 8.0 | 14.0 | 0.00 | 0.00 | 0.00 | 43 | 1022.3 |
| 20260509121055 | 44 | 259 | 15.0 | 16.0 | 0.00 | 0.00 | 0.00 | 45 | 1022.4 |
| 20260509120553 | 44 | 250 | 13.0 | 18.0 | 0.00 | 0.00 | 0.00 | 45 | 1022.3 |
| 20260509120052 | 44 | 317 | 7.0 | 9.0 | 0.00 | 0.00 | 0.00 | 46 | 1022.4 |
| 20260509115548 | 44 | 270 | 9.0 | 14.0 | 0.00 | 0.00 | 0.00 | 45 | 1022.5 |
| 20260509115046 | 44 | 289 | 7.0 | 10.0 | 0.00 | 0.00 | 0.00 | 47 | 1022.4 |
| 20260509114544 | 45 | 252 | 7.0 | 9.0 | 0.00 | 0.00 | 0.00 | 45 | 1022.7 |
| 20260509114042 | 44 | 286 | 3.0 | 13.0 | 0.00 | 0.00 | 0.00 | 47 | 1022.7 |
| 20260509113540 | 44 | 260 | 4.0 | 9.0 | 0.00 | 0.00 | 0.00 | 48 | 1022.7 |
| 20260509113038 | 44 | 206 | 1.0 | 14.0 | 0.00 | 0.00 | 0.00 | 48 | 1022.7 |
| 20260509112534 | 44 | 215 | 2.0 | 10.0 | 0.00 | 0.00 | 0.00 | 47 | 1022.7 |
| 20260509112031 | 45 | 258 | 6.0 | 13.0 | 0.00 | 0.00 | 0.00 | 47 | 1022.5 |
| 20260509111528 | 45 | 253 | 5.0 | 13.0 | 0.00 | 0.00 | 0.00 | 47 | 1022.7 |
| 20260509111025 | 45 | 300 | 6.0 | 16.0 | 0.00 | 0.00 | 0.00 | 47 | 1022.8 |
| 20260509110522 | 45 | 249 | 10.0 | 14.0 | 0.00 | 0.00 | 0.00 | 47 | 1022.5 |
| 20260509110019 | 44 | 247 | 7.0 | 11.0 | 0.00 | 0.00 | 0.00 | 47 | 1022.5 |
| 20260509105517 | 45 | 259 | 6.0 | 11.0 | 0.00 | 0.00 | 0.00 | 47 | 1022.4 |
| 20260509105015 | 45 | 277 | 3.0 | 8.0 | 0.00 | 0.00 | 0.00 | 47 | 1022.7 |
| 20260509104511 | 45 | 225 | 5.0 | 14.0 | 0.00 | 0.00 | 0.00 | 47 | 1022.5 |
| 20260509104008 | 45 | 329 | 4.0 | 9.0 | 0.00 | 0.00 | 0.00 | 48 | 1022.7 |
| 20260509103506 | 45 | 231 | 2.0 | 9.0 | 0.00 | 0.00 | 0.00 | 48 | 1022.5 |
| 20260509103004 | 45 | 259 | 2.0 | 9.0 | 0.00 | 0.00 | 0.00 | 48 | 1022.7 |
| 20260509102502 | 45 | 299 | 6.0 | 10.0 | 0.00 | 0.00 | 0.00 | 48 | 1022.5 |
| 20260509101958 | 45 | 269 | 4.0 | 11.0 | 0.00 | 0.00 | 0.00 | 47 | 1022.5 |
| 20260509101454 | 45 | 242 | 4.0 | 11.0 | 0.00 | 0.00 | 0.00 | 48 | 1022.5 |
| 20260509100951 | 45 | 262 | 3.0 | 8.0 | 0.00 | 0.00 | 0.00 | 48 | 1022.5 |
| 20260509100448 | 45 | 238 | 5.0 | 11.0 | 0.00 | 0.00 | 0.00 | 48 | 1022.7 |
| 20260509095945 | 45 | 231 | 5.0 | 6.0 | 0.00 | 0.00 | 0.00 | 48 | 1022.4 |
| 20260509095442 | 45 | 246 | 4.0 | 6.0 | 0.00 | 0.00 | 0.00 | 48 | 1022.5 |
| 20260509094939 | 45 | 291 | 2.0 | 8.0 | 0.00 | 0.00 | 0.00 | 47 | 1022.7 |
| 20260509094435 | 45 | 264 | 3.0 | 13.0 | 0.00 | 0.00 | 0.00 | 47 | 1022.7 |
| 20260509093933 | 45 | 294 | 9.0 | 13.0 | 0.00 | 0.00 | 0.00 | 47 | 1022.5 |
| 20260509093430 | 45 | 289 | 4.0 | 17.0 | 0.00 | 0.00 | 0.00 | 47 | 1022.4 |
| 20260509092928 | 45 | 283 | 4.0 | 7.0 | 0.00 | 0.00 | 0.00 | 47 | 1022.5 |
| 20260509092426 | 46 | 244 | 6.0 | 8.0 | 0.00 | 0.00 | 0.00 | 47 | 1022.5 |
| 20260509091925 | 46 | 230 | 3.0 | 9.0 | 0.00 | 0.00 | 0.00 | 47 | 1022.7 |
| 20260509091421 | 45 | 266 | 4.0 | 11.0 | 0.00 | 0.00 | 0.00 | 47 | 1022.5 |
| 20260509090918 | 46 | 293 | 2.0 | 4.0 | 0.00 | 0.00 | 0.00 | 47 | 1022.4 |
| 20260509090415 | 46 | 257 | 3.0 | 11.0 | 0.00 | 0.00 | 0.00 | 46 | 1022.3 |
| 20260509085913 | 46 | 211 | 4.0 | 7.0 | 0.00 | 0.00 | 0.00 | 47 | 1022.4 |
| 20260509085410 | 46 | 233 | 4.0 | 7.0 | 0.00 | 0.00 | 0.00 | 47 | 1022.5 |
| 20260509084906 | 46 | 256 | 5.0 | 11.0 | 0.00 | 0.00 | 0.00 | 46 | 1022.3 |
| 20260509084403 | 46 | 263 | 3.0 | 8.0 | 0.00 | 0.00 | 0.00 | 47 | 1022.3 |
| 20260509083901 | 46 | 242 | 4.0 | 8.0 | 0.00 | 0.00 | 0.00 | 47 | 1022.5 |
| 20260509083357 | 46 | 256 | 4.0 | 10.0 | 0.00 | 0.00 | 0.00 | 46 | 1022.7 |
| 20260509082854 | 46 | 251 | 7.0 | 9.0 | 0.00 | 0.00 | 0.00 | 47 | 1022.5 |
| 20260509082351 | 46 | 211 | 4.0 | 8.0 | 0.00 | 0.00 | 0.00 | 46 | 1022.4 |
| 20260509081848 | 46 | 262 | 3.0 | 7.0 | 0.00 | 0.00 | 0.00 | 46 | 1022.5 |
| 20260509081345 | 47 | 247 | 2.0 | 7.0 | 0.00 | 0.00 | 0.00 | 47 | 1022.5 |
| 20260509080843 | 47 | 267 | 2.0 | 7.0 | 0.00 | 0.00 | 0.00 | 47 | 1022.5 |
| 20260509080341 | 47 | 225 | 2.0 | 3.0 | 0.00 | 0.00 | 0.00 | 46 | 1022.4 |
| 20260509075839 | 46 | 244 | 5.0 | 8.0 | 0.00 | 0.00 | 0.00 | 45 | 1022.5 |
| 20260509075335 | 47 | 256 | 1.0 | 9.0 | 0.00 | 0.00 | 0.00 | 45 | 1022.7 |
| 20260509074832 | 47 | 266 | 2.0 | 8.0 | 0.00 | 0.00 | 0.00 | 44 | 1022.8 |
| 20260509074330 | 48 | 261 | 2.0 | 8.0 | 0.00 | 0.00 | 0.00 | 44 | 1022.8 |
| 20260509073826 | 48 | 311 | 3.0 | 15.0 | 0.00 | 0.00 | 0.00 | 43 | 1022.8 |
| 20260509073323 | 48 | 265 | 5.0 | 13.0 | 0.00 | 0.00 | 0.00 | 43 | 1022.9 |
| 20260509072820 | 49 | 241 | 4.0 | 6.0 | 0.00 | 0.00 | 0.00 | 43 | 1022.7 |
| 20260509072316 | 48 | 272 | 8.0 | 11.0 | 0.00 | 0.00 | 0.00 | 42 | 1022.8 |
| 20260509071813 | 48 | 294 | 3.0 | 9.0 | 0.00 | 0.00 | 0.00 | 42 | 1022.8 |
| 20260509071310 | 48 | 314 | 5.0 | 7.0 | 0.00 | 0.00 | 0.00 | 44 | 1022.8 |
| 20260509070807 | 46 | 287 | 5.0 | 10.0 | 0.00 | 0.00 | 0.00 | 45 | 1022.7 |
| 20260509070304 | 44 | 235 | 1.0 | 4.0 | 0.00 | 0.00 | 0.00 | 51 | 1022.4 |
| 20260509065800 | 44 | 215 | 3.0 | 3.0 | 0.00 | 0.00 | 0.00 | 54 | 1022.5 |
| 20260509065256 | 43 | 219 | 4.0 | 7.0 | 0.00 | 0.00 | 0.00 | 50 | 1022.7 |
| 20260509064752 | 43 | 219 | 3.0 | 4.0 | 0.00 | 0.00 | 0.00 | 60 | 1022.9 |
| 20260509064250 | 43 | 216 | 2.0 | 6.0 | 0.00 | 0.00 | 0.00 | 56 | 1022.5 |
| 20260509063747 | 44 | 206 | 3.0 | 4.0 | 0.00 | 0.00 | 0.00 | 55 | 1022.8 |
| 20260509063243 | 44 | 207 | 4.0 | 4.0 | 0.00 | 0.00 | 0.00 | 61 | 1022.9 |
| 20260509062741 | 43 | 218 | 4.0 | 4.0 | 0.00 | 0.00 | 0.00 | 59 | 1023.1 |
| 20260509062238 | 43 | 209 | 3.0 | 3.0 | 0.00 | 0.00 | 0.00 | 58 | 1022.9 |
| 20260509061735 | 44 | 214 | 3.0 | 4.0 | 0.00 | 0.00 | 0.00 | 54 | 1023.3 |
| 20260509061233 | 43 | 211 | 4.0 | 6.0 | 0.00 | 0.00 | 0.00 | 54 | 1023.1 |
| 20260509060730 | 45 | 206 | 5.0 | 6.0 | 0.00 | 0.00 | 0.00 | 52 | 1022.9 |
| 20260509060226 | 45 | 203 | 3.0 | 4.0 | 0.00 | 0.00 | 0.00 | 52 | 1022.9 |
| 20260509055722 | 45 | 188 | 3.0 | 4.0 | 0.00 | 0.00 | 0.00 | 52 | 1022.7 |
| 20260509055218 | 44 | 213 | 3.0 | 6.0 | 0.00 | 0.00 | 0.00 | 56 | 1023.1 |
| 20260509054714 | 43 | 199 | 3.0 | 3.0 | 0.00 | 0.00 | 0.00 | 59 | 1023.2 |
| 20260509054212 | 44 | 226 | 5.0 | 7.0 | 0.00 | 0.00 | 0.00 | 52 | 1023.3 |
| 20260509053710 | 43 | 191 | 3.0 | 4.0 | 0.00 | 0.00 | 0.00 | 55 | 1023.1 |
| 20260509053207 | 43 | 191 | 4.0 | 4.0 | 0.00 | 0.00 | 0.00 | 55 | 1023.2 |
| 20260509052705 | 44 | 212 | 4.0 | 4.0 | 0.00 | 0.00 | 0.00 | 54 | 1023.2 |
| 20260509052202 | 44 | 190 | 3.0 | 3.0 | 0.00 | 0.00 | 0.00 | 54 | 1023.3 |
| 20260509051659 | 44 | 222 | 3.0 | 4.0 | 0.00 | 0.00 | 0.00 | 56 | 1023.6 |
| 20260509051157 | 44 | 196 | 2.0 | 4.0 | 0.00 | 0.00 | 0.00 | 54 | 1023.6 |
| 20260509050654 | 44 | 244 | 3.0 | 4.0 | 0.00 | 0.00 | 0.00 | 53 | 1023.9 |
| 20260509050150 | 46 | 209 | 2.0 | 3.0 | 0.00 | 0.00 | 0.00 | 52 | 1023.7 |
| 20260509045648 | 46 | 223 | 3.0 | 6.0 | 0.00 | 0.00 | 0.00 | 54 | 1023.7 |
| 20260509045144 | 46 | 219 | 4.0 | 4.0 | 0.00 | 0.00 | 0.00 | 53 | 1023.6 |
| 20260509044641 | 46 | 220 | 4.0 | 6.0 | 0.00 | 0.00 | 0.00 | 50 | 1023.7 |
| 20260509044139 | 44 | 244 | 4.0 | 7.0 | 0.00 | 0.00 | 0.00 | 55 | 1023.7 |
| 20260509043636 | 41 | 194 | 4.0 | 4.0 | 0.00 | 0.00 | 0.00 | 70 | 1023.9 |
| 20260509043131 | 41 | 212 | 3.0 | 3.0 | 0.00 | 0.00 | 0.00 | 73 | 1024.0 |
| 20260509042628 | 41 | 210 | 2.0 | 3.0 | 0.00 | 0.00 | 0.00 | 72 | 1024.3 |
| 20260509042124 | 42 | 218 | 2.0 | 3.0 | 0.00 | 0.00 | 0.00 | 73 | 1024.3 |
| 20260509041621 | 42 | 210 | 3.0 | 3.0 | 0.00 | 0.00 | 0.00 | 71 | 1024.3 |
| 20260509041118 | 43 | 215 | 2.0 | 3.0 | 0.00 | 0.00 | 0.00 | 70 | 1024.1 |
| 20260509040617 | 43 | 212 | 2.0 | 3.0 | 0.00 | 0.00 | 0.00 | 69 | 1024.1 |
| 20260509040113 | 44 | 235 | 0.0 | 1.0 | 0.00 | 0.00 | 0.00 | 68 | 1024.1 |
| 20260509035610 | 45 | 262 | 2.0 | 3.0 | 0.00 | 0.00 | 0.00 | 65 | 1024.0 |
| 20260509035107 | 44 | 237 | 1.0 | 3.0 | 0.00 | 0.00 | 0.00 | 70 | 1024.3 |
| 20260509034605 | 45 | 238 | 1.0 | 6.0 | 0.00 | 0.00 | 0.00 | 70 | 1024.3 |
| 20260509034101 | 44 | 227 | 4.0 | 8.0 | 0.00 | 0.00 | 0.00 | 70 | 1024.5 |
| 20260509033558 | 45 | 227 | 2.0 | 3.0 | 0.00 | 0.00 | 0.00 | 71 | 1024.0 |
| 20260509033055 | 44 | 205 | 4.0 | 7.0 | 0.00 | 0.00 | 0.00 | 72 | 1024.4 |
| 20260509032553 | 44 | 238 | 2.0 | 3.0 | 0.00 | 0.00 | 0.00 | 73 | 1024.3 |
| 20260509032049 | 44 | 249 | 3.0 | 8.0 | 0.00 | 0.00 | 0.00 | 72 | 1024.1 |
| 20260509031547 | 44 | 178 | 7.0 | 8.0 | 0.00 | 0.00 | 0.00 | 71 | 1024.0 |
| 20260509031044 | 44 | 190 | 2.0 | 6.0 | 0.00 | 0.00 | 0.00 | 73 | 1024.6 |
| 20260509030543 | 44 | 230 | 3.0 | 4.0 | 0.00 | 0.00 | 0.00 | 72 | 1024.3 |
| 20260509030039 | 44 | 221 | 4.0 | 6.0 | 0.00 | 0.00 | 0.00 | 72 | 1024.3 |
| 20260509025535 | 45 | 221 | 2.0 | 6.0 | 0.00 | 0.00 | 0.00 | 71 | 1024.3 |
| 20260509025031 | 45 | 236 | 2.0 | 3.0 | 0.00 | 0.00 | 0.00 | 72 | 1023.7 |
| 20260509024527 | 44 | 218 | 3.0 | 6.0 | 0.00 | 0.00 | 0.00 | 72 | 1023.9 |
| 20260509024023 | 43 | 188 | 3.0 | 4.0 | 0.00 | 0.00 | 0.00 | 74 | 1023.7 |
| 20260509023521 | 43 | 227 | 2.0 | 3.0 | 0.00 | 0.00 | 0.00 | 74 | 1023.6 |
| 20260509023018 | 45 | 250 | 2.0 | 3.0 | 0.00 | 0.00 | 0.00 | 70 | 1023.7 |
| 20260509022514 | 45 | 230 | 4.0 | 6.0 | 0.00 | 0.00 | 0.00 | 69 | 1023.5 |
| 20260509022012 | 44 | 221 | 2.0 | 2.0 | 0.00 | 0.00 | 0.00 | 73 | 1023.5 |
| 20260509021509 | 44 | 238 | 3.0 | 4.0 | 0.00 | 0.00 | 0.00 | 72 | 1023.5 |
| 20260509021006 | 45 | 194 | 3.0 | 7.0 | 0.00 | 0.00 | 0.00 | 70 | 1023.5 |
| 20260509020504 | 46 | 212 | 5.0 | 8.0 | 0.00 | 0.00 | 0.00 | 68 | 1023.7 |
| 20260509020000 | 45 | 193 | 4.0 | 7.0 | 0.00 | 0.00 | 0.00 | 69 | 1023.6 |
| 20260509015459 | 45 | 185 | 4.0 | 6.0 | 0.00 | 0.00 | 0.00 | 70 | 1023.6 |
| 20260509014956 | 45 | 225 | 3.0 | 6.0 | 0.00 | 0.00 | 0.00 | 70 | 1023.6 |
| 20260509014453 | 45 | 214 | 5.0 | 6.0 | 0.00 | 0.00 | 0.00 | 70 | 1023.5 |
| 20260509013949 | 46 | 240 | 1.0 | 2.0 | 0.00 | 0.00 | 0.00 | 70 | 1023.7 |
| 20260509013446 | 46 | 209 | 4.0 | 6.0 | 0.00 | 0.00 | 0.00 | 72 | 1023.2 |
| 20260509012936 | 46 | 223 | 0.0 | 0.0 | 0.00 | 0.00 | 0.00 | 70 | 1023.3 |
| 20260509012433 | 47 | 225 | 2.0 | 3.0 | 0.00 | 0.00 | 0.00 | 67 | 1023.5 |
| 20260509011930 | 47 | 240 | 0.0 | 2.0 | 0.00 | 0.00 | 0.00 | 68 | 1023.3 |
| 20260509011427 | 47 | 238 | 1.0 | 2.0 | 0.00 | 0.00 | 0.00 | 69 | 1023.1 |
| 20260509010925 | 47 | 253 | 2.0 | 6.0 | 0.00 | 0.00 | 0.00 | 68 | 1023.3 |
| 20260509010422 | 47 | 142 | 3.0 | 3.0 | 0.00 | 0.00 | 0.00 | 67 | 1023.2 |
| 20260509005919 | 48 | 209 | 2.0 | 3.0 | 0.00 | 0.00 | 0.00 | 66 | 1023.5 |
| 20260509005417 | 47 | 228 | 0.0 | 3.0 | 0.00 | 0.00 | 0.00 | 67 | 1023.3 |
| 20260509004917 | 47 | 211 | 2.0 | 6.0 | 0.00 | 0.00 | 0.00 | 67 | 1022.9 |
| 20260509004414 | 47 | 167 | 2.0 | 4.0 | 0.00 | 0.00 | 0.00 | 66 | 1023.2 |
| 20260509003912 | 47 | 218 | 2.0 | 4.0 | 0.00 | 0.00 | 0.00 | 68 | 1023.1 |
| 20260509003409 | 48 | 249 | 1.0 | 1.0 | 0.00 | 0.00 | 0.00 | 66 | 1023.2 |
| 20260509002906 | 48 | 191 | 2.0 | 3.0 | 0.00 | 0.00 | 0.00 | 66 | 1023.2 |
| 20260509002404 | 48 | 254 | 0.0 | 1.0 | 0.00 | 0.00 | 0.00 | 65 | 1023.1 |
| 20260509001901 | 49 | 88 | 2.0 | 4.0 | 0.00 | 0.00 | 0.00 | 65 | 1023.1 |
| 20260509001356 | 48 | 295 | 1.0 | 3.0 | 0.00 | 0.00 | 0.00 | 64 | 1023.3 |
| 20260509000854 | 48 | 187 | 3.0 | 3.0 | 0.00 | 0.00 | 0.00 | 65 | 1023.3 |
| 20260509000352 | 48 | 176 | 3.0 | 3.0 | 0.00 | 0.00 | 0.00 | 65 | 1023.3 |
| 20260508235848 | 49 | 242 | 2.0 | 3.0 | 0.00 | 0.00 | 0.00 | 65 | 1023.5 |
| 20260508235345 | 49 | 320 | 1.0 | 2.0 | 0.00 | 0.00 | 0.00 | 63 | 1023.5 |
| 20260508234842 | 49 | 16 | 0.0 | 2.0 | 0.00 | 0.00 | 0.00 | 64 | 1023.2 |
| 20260508234338 | 50 | 312 | 1.0 | 2.0 | 0.00 | 0.00 | 0.00 | 62 | 1023.3 |
| 20260508233837 | 50 | 45 | 4.0 | 6.0 | 0.00 | 0.00 | 0.00 | 61 | 1023.2 |
| 20260508233336 | 51 | 24 | 2.0 | 3.0 | 0.00 | 0.00 | 0.00 | 61 | 1022.9 |
| 20260508232832 | 52 | 262 | 2.0 | 3.0 | 0.00 | 0.00 | 0.00 | 59 | 1023.2 |
| 20260508232329 | 51 | 235 | 1.0 | 4.0 | 0.00 | 0.00 | 0.00 | 61 | 1023.3 |
| 20260508231827 | 51 | 76 | 0.0 | 7.0 | 0.00 | 0.00 | 0.00 | 61 | 1023.1 |
| 20260508231323 | 51 | 138 | 2.0 | 6.0 | 0.00 | 0.00 | 0.00 | 59 | 1022.9 |
| 20260508230820 | 51 | 341 | 1.0 | 6.0 | 0.00 | 0.00 | 0.00 | 58 | 1022.9 |
| 20260508230316 | 50 | 148 | 5.0 | 7.0 | 0.00 | 0.00 | 0.00 | 59 | 1023.2 |
| 20260508225814 | 51 | 29 | 3.0 | 7.0 | 0.00 | 0.00 | 0.00 | 60 | 1023.3 |
| 20260508225310 | 51 | 323 | 0.0 | 2.0 | 0.00 | 0.00 | 0.00 | 59 | 1023.2 |
| 20260508224809 | 51 | 344 | 5.0 | 8.0 | 0.00 | 0.00 | 0.00 | 59 | 1023.1 |
| 20260508224306 | 50 | 233 | 4.0 | 8.0 | 0.00 | 0.00 | 0.00 | 59 | 1023.1 |
| 20260508223803 | 52 | 179 | 3.0 | 6.0 | 0.00 | 0.00 | 0.00 | 57 | 1022.9 |
| 20260508223300 | 52 | 95 | 3.0 | 7.0 | 0.00 | 0.00 | 0.00 | 57 | 1023.2 |
| 20260508222758 | 51 | 242 | 0.0 | 4.0 | 0.00 | 0.00 | 0.00 | 58 | 1023.1 |